Regional Weather Roundup
Issued by NWS

Home | Current Version | Previous Version | Graphics & Text | Print | Product List | Glossary On
Versions: 1 2 3 4 5 6 7 8 9 10 11 12 13 14 15 16 17 18 19 20 21 22 23 24 25 26 27 28 29 30 31 32 33 34 35 36 37 38 39 40 41 42 43 44 45 46 47 48 49 50
000
ASUS43 KTOP 192259
RWRKS

WEATHER ROUNDUP FOR KANSAS
NATIONAL WEATHER SERVICE GOODLAND KS
600 PM CDT THU APR 19 2018

NOTE:  "FAIR" INDICATES FEW OR NO CLOUDS BELOW 12,000 FEET WITH NO
SIGNIFICANT WEATHER AND/OR OBSTRUCTIONS TO VISIBILITY.

KSZ001>006-013>018-027>032-041>047-200000-
NORTHWEST KANSAS

CITY           SKY/WX    TMP DP  RH WIND       PRES   REMARKS
GOODLAND       MOSUNNY   62  26  25 SE22G39   30.18F
HAYS           SUNNY     60  26  27 SE15G21   30.30F
HILL CITY      SUNNY     61  26  26 E16       30.28F
RUSSELL        SUNNY     59  28  30 E10       30.30F
$$

KSZ061>065-074>080-084>089-200000-
SOUTHWEST KANSAS

CITY           SKY/WX    TMP DP  RH WIND       PRES   REMARKS
DODGE CITY     SUNNY     64  26  23 SE14G22   30.27F
GARDEN CITY    SUNNY     63  23  21 SE22G29   30.23F
GREAT BEND     SUNNY     59  28  30 E10       30.31F
LIBERAL        SUNNY     67  26  21 SE21G26   30.22F
$$

KSZ066>073-081>083-090>101-200000-
SOUTHEAST KANSAS

CITY           SKY/WX    TMP DP  RH WIND       PRES   REMARKS
CHANUTE        SUNNY     59  31  34 E9        30.34F
COFFEYVILLE    MOSUNNY   57  31  37 E10       30.34F
HUTCHINSON     SUNNY     60  28  29 E10G21    30.31F
MEDICINE LODGE   N/A     62  26  25 E8        30.29F
NEWTON         SUNNY     58  27  30 E9        30.33F
PARSONS        SUNNY     58  30  34 VRB7      30.35F
WICHITA INTL   CLOUDY    59  28  30 E13       30.32F
WICHITA JABRA  CLOUDY    57  26  30 E10G18    30.32F
WINFIELD       SUNNY     60  28  29 E12       30.33F
$$

KSZ007>012-019>026-033>040-048>060-102>105-200000-
NORTHEAST KANSAS

CITY           SKY/WX    TMP DP  RH WIND       PRES   REMARKS
CONCORDIA      CLOUDY    58  25  28 E9G18     30.33F
EMPORIA        SUNNY     58  28  32 E9        30.34F
LAWRENCE       SUNNY     60  30  32 NE10G22   30.35F
MANHATTAN      SUNNY     60  28  29 E8        30.34F
OLATHE IND     SUNNY     58  30  34 E8        30.36F
OLATHE EXE     SUNNY     56  30  37 VRB5      30.36F
SALINA         SUNNY     61  28  28 E9        30.33F
TOPEKA BILLARD SUNNY     60  30  32 NE8G20    30.34F
TOPEKA FORBES  SUNNY     60  30  32 E13       30.34F
$$




USA.gov is the U.S. government's official web portal to all federal, state and local government web resources and services.